Regional Weather Roundup
Issued by NWS

Home | Current Version | Previous Version | Graphics & Text | Print | Product List | Glossary On
Versions: 1 2 3 4 5 6 7 8 9 10 11 12 13 14 15 16 17 18 19 20 21 22 23 24 25 26 27 28 29 30 31 32 33 34 35 36 37 38 39 40 41 42 43 44 45 46 47 48 49 50
000
ASUS43 KMPX 231801
RWRMN
WEATHER ROUNDUP FOR MINNESOTA
NATIONAL WEATHER SERVICE TWIN CITIES/CHANHASSEN MN
1200 PM CST MON JAN 23 2017


NOTE: "FAIR" INDICATES FEW OR NO CLOUDS BELOW 12,000 FEET WITH NO
SIGNIFICANT WEATHER AND/OR OBSTRUCTIONS TO VISIBILITY. N/A MEANS
CURRENT SKY AND/OR WEATHER CONDITIONS ARE NOT AVAILABLE.

MNZ060>063-068>070-231900-
   Twin Cities Metro

CITY           SKY/WX    TMP DP  RH WIND       PRES   REMARKS
TWIN CITIES    CLOUDY    34  29  82 W8        29.83F WCI  27
6HR MIN TEMP:  33; 6HR MAX TEMP:  35; 6HR PCP: TRACE;

ST PAUL        CLOUDY    35  33  92 W3        29.84F
CRYSTAL        CLOUDY    34  29  82 SW7       29.82F WCI  28
BLAINE         CLOUDY    36  36 100 W6        29.82F FOG
LAKEVILLE      CLOUDY    32  30  93 SW3       29.84S
EDEN PRAIRIE   CLOUDY    33  29  85 SW7       29.83F WCI  27
6HR MIN TEMP:  33; 6HR MAX TEMP:  34; 6HR PCP: TRACE;

SOUTH ST PAUL  CLOUDY    35  33  93 W7        29.83F FOG     WCI  29
LAKE ELMO      LGT RAIN  34  32  93 W5        29.83F WCI  30
$$
MNZ001>005-007-008-013>017-022>024-027-028-231900-
   Northwest Minnesota

CITY           SKY/WX    TMP DP  RH WIND       PRES   REMARKS
BEMIDJI        CLOUDY    31  26  79 W3        29.78F
HALLOCK        CLOUDY    30  27  86 W12       29.76F WCI  21
ROSEAU         MOSUNNY   32  27  80 SW8       29.75F WCI  25
WARROAD        CLOUDY    32  28  86 SW7       29.76S WCI  26
THIEF RVR FALL CLOUDY    30  25  81 W13       29.79F WCI  20
CROOKSTON      CLOUDY    30  27  86 W7        29.80F WCI  23
FOSSTON        CLOUDY    30  27  86 W6        29.78F WCI  24
DETROIT LAKES  PTSUNNY   32  28  86 W7        29.80F WCI  26
MOORHEAD       CLOUDY    34  28  80 W3        29.82F
PARK RAPIDS    CLOUDY    32  23  69 NW8       29.78F WCI  25
MAHNOMEN       CLOUDY    31  28  87 W5        29.78F WCI  26
$$
MNZ006-009>011-018-025>026-231900-
   North Central Minnesota

CITY           SKY/WX    TMP DP  RH WIND       PRES   REMARKS
BAUDETTE       CLOUDY    32  29  88 SW8       29.75R WCI  25
FLAG ISLAND    CLOUDY    32  30  93 SW7       29.74R WCI  26
INTL FALLS     CLOUDY    34  30  85 SW7       29.75S WCI  28
6HR MIN TEMP:  32; 6HR MAX TEMP:  34;

WASKISH        CLOUDY    32  30  93 SW7       29.78S WCI  26
BIG FORK       CLOUDY    34  30  86 SW3       29.77R
LONGVILLE      CLOUDY    30  30 100 W3        29.79S
GRAND RAPIDS   CLOUDY    34  31  88 W5        29.80R WCI  30
CRANE LAKE     CLOUDY    34  32  93 CALM      29.77F
ORR            CLOUDY    32  30  93 CALM      29.73S
COOK           CLOUDY    34  34 100 CALM      29.76S
WALKER         CLOUDY    31  24  77 W7        29.80S WCI  24
$$
MNZ012-019>021-037-231900-
   Northeast Minnesota

CITY           SKY/WX    TMP DP  RH WIND       PRES   REMARKS
DULUTH         CLOUDY    36  32  85 W5        29.75S
6HR MIN TEMP:  33; 6HR MAX TEMP:  37; 6HR PCP: TRACE;

ELY            CLOUDY    34  34 100 CALM      29.74F FOG
HIBBING        CLOUDY    33  32  96 NW3       29.75S
EVELETH        CLOUDY    37  34  89 CALM      29.76S
DULUTH HARBOR  CLOUDY    37  34  87 CALM      29.79S
TWO HARBORS    CLOUDY    39  34  81 CALM      29.74F
SILVER BAY     CLOUDY    39  36  87 CALM      29.74S
GRAND MARAIS     N/A     38  34  85 SE3       29.77F
G MARAIS ARPRT CLOUDY    34  28  80 CALM      29.73F
$$
MNZ029>031-032-039>041-046>048-054>057-064-231900-
   West Central Minnesota

CITY           SKY/WX    TMP DP  RH WIND       PRES   REMARKS
FERGUS FALLS   CLOUDY    30  27  86 W7        29.86F WCI  23
WHEATON        CLOUDY   N/A N/A N/A W8        29.86S
MORRIS         CLOUDY    34  28  80 NW7       29.82F WCI  28
ALEXANDRIA     CLOUDY    31  27  85 NW9       29.83S WCI  23
ELBOW LAKE     CLOUDY    31  28  87 NW9       29.83F FOG     WCI  23
WADENA         CLOUDY    30  25  80 W3        29.80F
GLENWOOD       CLOUDY    30  28  93 W10       29.83S WCI  21
APPLETON       CLOUDY    34  28  80 W6        29.84F WCI  29
ORTONVILLE     CLOUDY    32  27  80 CALM      29.83F
MADISON        CLOUDY    36  30  80 NW5       29.85F
WILLMAR        CLOUDY    34  30  86 CALM      29.85F FOG
$$
MNZ033>034-036-042>043-049>051-058-059-231900-
   Central Minnesota

CITY           SKY/WX    TMP DP  RH WIND       PRES   REMARKS
ST CLOUD       CLOUDY    33  30  88 W7        29.82F WCI  27
6HR MIN TEMP:  31; 6HR MAX TEMP:  33; 6HR PCP: TRACE;

SAUK CENTRE    CLOUDY    31  26  80 W5        29.83S WCI  27
PAYNESVILLE    CLOUDY    32  31  94 W7        29.84S WCI  26
AITKIN         CLOUDY    36  30  80 W6        29.79R
PINE RIVER     CLOUDY    30  28  93 W5        29.84S WCI  25
BRAINERD       CLOUDY    32  29  88 W5        29.81S WCI  27
STAPLES        CLOUDY    30  27  86 NW5       29.80F WCI  25
LONG PRAIRIE   CLOUDY    32  27  80 CALM      29.82S
LITTLE FALLS   CLOUDY    32  28  86 NW6       29.83F WCI  26
LITCHFIELD     CLOUDY    34  28  80 NW6       29.84F WCI  29
BUFFALO        CLOUDY    32  31  94 SW3       29.84S FOG
MAPLE LAKE     CLOUDY    34  32  92 W7        29.84S WCI  28
HUTCHINSON     CLOUDY    33  30  88 W5        29.86R WCI  29
$$
MNZ037-044-045-052-053-231900-
   East Central Minnesota

CITY           SKY/WX    TMP DP  RH WIND       PRES   REMARKS
PRINCETON      CLOUDY    36  34  93 SW5       29.83S FOG
MORA           CLOUDY    34  32  93 CALM      29.82S FOG
CAMBRIDGE      CLOUDY    37  36  93 W3        29.80S FOG
RUSH CITY      CLOUDY    34  32  93 CALM      29.81F FOG
MOOSE LAKE     CLOUDY    36  32  87 SW3       29.77S
HINCKLEY       CLOUDY    36  34  93 SW3       29.80S
CLOQUET        CLOUDY    36  34  93 CALM      29.76F
MCGREGOR       CLOUDY    34  32  93 W5        29.79S WCI  30
$$
MNZ071>073-080-081-089-090-097-098-231900-
   Southwest Minnesota

CITY           SKY/WX    TMP DP  RH WIND       PRES   REMARKS
MONTEVIDEO     CLOUDY    34  34 100 CALM      29.86F
GRANITE FALLS  CLOUDY    33  30  86 W8        29.87F WCI  27
CANBY          CLOUDY    32  29  87 CALM      29.85F
MARSHALL       CLOUDY    32  28  85 N8        29.85F WCI  25
REDWOOD FALLS  CLOUDY    33  29  85 W6        29.85F WCI  28
OLIVIA         CLOUDY    32  30  93 NW5       29.85S WCI  27
PIPESTONE      CLOUDY    30  28  93 NW5       29.81F FOG     WCI  25
WINDOM         CLOUDY    32  28  86 W5        29.84F WCI  27
WORTHINGTON    CLOUDY    31  29  92 NW6       29.84  WCI  25
JACKSON        CLOUDY    30  28  93 NW5       29.84F WCI  25
TRACY          CLOUDY    32  30  92 N8        29.84F WCI  25
SLAYTON        CLOUDY    29  28  95 W9        29.84F WCI  21
$$
MNZ065>067-074>077-082>085-091>093-231900-
   South Central Minnesota

CITY           SKY/WX    TMP DP  RH WIND       PRES   REMARKS
MANKATO        CLOUDY    33  28  81 W6        29.86F WCI  28
NEW ULM        CLOUDY    34  28  80 W9        29.86S WCI  26
ST JAMES       CLOUDY    32  30  93 W7        29.87F WCI  26
FAIRMONT       CLOUDY    32  29  88 NW7       29.86F WCI  26
GLENCOE        CLOUDY    34  32  93 W6        29.84S WCI  29
OWATONNA       CLOUDY    32  28  86 W7        29.84F WCI  26
WASECA         CLOUDY    32  28  86 W5        29.86F WCI  27
ALBERT LEA     CLOUDY    34  30  86 W3        29.85S
$$
MNZ078>079-086>088-094>096-231900-
   Southeast Minnesota

CITY           SKY/WX    TMP DP  RH WIND       PRES   REMARKS
ROCHESTER      CLOUDY    32  32 100 W8        29.83S FOG     WCI  25
6HR MIN TEMP:  31; 6HR MAX TEMP:  33; 6HR PCP: TRACE;

RED WING       DRIZZLE   36  34  93 W6        29.83S
STANTON        CLOUDY    35  31  87 SW8       29.83S WCI  28
DODGE CENTER   PTSUNNY   32  30  93 CALM      29.82F FOG
WINONA         CLOUDY    36  34  93 NW3       29.83F
AUSTIN         CLOUDY    34  28  80 W8        29.84F WCI  27
PRESTON        CLOUDY    33  31  92 W9        29.83F FOG     WCI  25
$$
ABBREVIATIONS USED IN REMARKS
   TC - TEMPERATURES IN CELSIUS
  WCI - WIND CHILL INDEX
   HX - HEAT INDEX
  VSB - VISIBILITY
$$



USA.gov is the U.S. government's official web portal to all federal, state and local government web resources and services.